FFT764 KABQ-KDEN

Flight info

Callsign FFT764
Flight time 1h 3m
Altitude 35000
Route ATOMK3 ATOMK GNDLA TBARR3
Aircraft A20N/M-SDE2E3FGHIRWXY/LB1

Departure

Time 2026-05-07 03:33
Airport Albuquerque International Sunport (KABQ)

Arrival

Time 2026-05-07 04:37
Airport Denver International Airport (KDEN)
Time Latitude Longitude Altitude Speed Heading
2026-05-07 03:20 35.04686 -106.61490 5331 ft 0 kts
2026-05-07 03:22 35.04685 -106.61490 5331 ft 1 kts
2026-05-07 03:23 35.04671 -106.61492 5331 ft 2 kts
2026-05-07 03:23 35.04656 -106.61494 5331 ft 2 kts
2026-05-07 03:23 35.04641 -106.61497 5331 ft 2 kts
2026-05-07 03:23 35.04626 -106.61499 5331 ft 2 kts
2026-05-07 03:24 35.04612 -106.61500 5331 ft 2 kts
2026-05-07 03:24 35.04596 -106.61503 5331 ft 2 kts
2026-05-07 03:24 35.04581 -106.61505 5331 ft 2 kts
2026-05-07 03:24 35.04567 -106.61508 5331 ft 2 kts 28°
2026-05-07 03:25 35.04556 -106.61521 5330 ft 2 kts 69°
2026-05-07 03:25 35.04554 -106.61531 5330 ft 1 kts 91°
2026-05-07 03:25 35.04555 -106.61540 5330 ft 0 kts 91°
2026-05-07 03:27 35.04554 -106.61521 5330 ft 5 kts 91°
2026-05-07 03:27 35.04555 -106.61455 5331 ft 10 kts 89°
2026-05-07 03:27 35.04569 -106.61345 5332 ft 15 kts 66°
2026-05-07 03:27 35.04581 -106.61197 5333 ft 19 kts 91°
2026-05-07 03:28 35.04580 -106.61022 5334 ft 20 kts 89°
2026-05-07 03:28 35.04578 -106.60852 5335 ft 19 kts 90°
2026-05-07 03:28 35.04577 -106.60689 5335 ft 19 kts 90°
2026-05-07 03:28 35.04576 -106.60513 5336 ft 22 kts 89°
2026-05-07 03:29 35.04577 -106.60319 5337 ft 24 kts 89°
2026-05-07 03:29 35.04575 -106.60101 5338 ft 26 kts 90°
2026-05-07 03:29 35.04582 -106.59880 5339 ft 25 kts 84°
2026-05-07 03:29 35.04584 -106.59676 5341 ft 23 kts 89°
2026-05-07 03:30 35.04584 -106.59483 5342 ft 21 kts 90°
2026-05-07 03:30 35.04583 -106.59302 5344 ft 20 kts 91°
2026-05-07 03:30 35.04582 -106.59133 5346 ft 20 kts 91°
2026-05-07 03:30 35.04579 -106.58958 5348 ft 21 kts 90°
2026-05-07 03:31 35.04580 -106.58768 5350 ft 22 kts 90°
2026-05-07 03:31 35.04579 -106.58570 5352 ft 23 kts 88°
2026-05-07 03:31 35.04577 -106.58372 5356 ft 22 kts 90°
2026-05-07 03:31 35.04512 -106.58277 5357 ft 16 kts 171°
2026-05-07 03:32 35.04427 -106.58277 5356 ft 8 kts 197°
2026-05-07 03:32 35.04411 -106.58342 5355 ft 10 kts 271°
2026-05-07 03:32 35.04413 -106.58568 5352 ft 57 kts 272°
2026-05-07 03:32 35.04419 -106.59350 5343 ft 124 kts 269°
2026-05-07 03:33 35.04421 -106.60614 5386 ft 170 kts 273°
2026-05-07 03:33 35.04419 -106.62107 5873 ft 180 kts 271°
2026-05-07 03:33 35.04457 -106.63609 6602 ft 176 kts 279°
2026-05-07 03:33 35.04681 -106.65044 7253 ft 174 kts 284°
2026-05-07 03:34 35.04935 -106.66531 7655 ft 189 kts 283°
2026-05-07 03:34 35.05180 -106.68147 8175 ft 198 kts 282°
2026-05-07 03:34 35.05409 -106.69862 8539 ft 218 kts 281°
2026-05-07 03:34 35.05666 -106.71783 8938 ft 238 kts 282°
2026-05-07 03:35 35.05985 -106.73846 9412 ft 256 kts 283°
2026-05-07 03:35 35.06453 -106.76001 9965 ft 268 kts 297°
2026-05-07 03:35 35.07584 -106.77759 10771 ft 271 kts 319°
2026-05-07 03:35 35.09252 -106.78842 11595 ft 279 kts 341°
2026-05-07 03:36 35.11175 -106.79305 12405 ft 284 kts 346°
2026-05-07 03:36 35.13114 -106.79720 13203 ft 289 kts 345°
2026-05-07 03:36 35.15108 -106.80151 13980 ft 293 kts 345°
2026-05-07 03:36 35.17129 -106.80585 14796 ft 296 kts 346°
2026-05-07 03:37 35.19128 -106.81014 15639 ft 297 kts 346°
2026-05-07 03:37 35.21175 -106.81460 16319 ft 303 kts 346°
2026-05-07 03:37 35.23327 -106.81931 16673 ft 320 kts 347°
2026-05-07 03:37 35.25544 -106.82416 17109 ft 333 kts 347°
2026-05-07 03:38 35.27842 -106.82918 17800 ft 337 kts 348°
2026-05-07 03:38 35.30157 -106.83419 18545 ft 339 kts 348°
2026-05-07 03:38 35.32454 -106.83916 19223 ft 342 kts 348°
2026-05-07 03:38 35.34812 -106.84430 19834 ft 346 kts 348°
2026-05-07 03:39 35.37229 -106.84959 20244 ft 357 kts 348°
2026-05-07 03:39 35.39670 -106.85493 20743 ft 364 kts 348°
2026-05-07 03:39 35.42180 -106.86030 21346 ft 367 kts 349°
2026-05-07 03:39 35.44727 -106.86458 21956 ft 371 kts 351°
2026-05-07 03:40 35.47305 -106.86858 22522 ft 375 kts 351°
2026-05-07 03:40 35.49873 -106.87249 23086 ft 378 kts 352°
2026-05-07 03:40 35.52502 -106.87651 23672 ft 381 kts 352°
2026-05-07 03:40 35.55145 -106.88059 24256 ft 383 kts 352°
2026-05-07 03:41 35.57770 -106.88461 24805 ft 386 kts 352°
2026-05-07 03:41 35.60454 -106.88872 25299 ft 390 kts 352°
2026-05-07 03:41 35.63173 -106.89288 25823 ft 392 kts 352°
2026-05-07 03:41 35.65864 -106.89704 26329 ft 394 kts 353°
2026-05-07 03:42 35.68605 -106.90127 26765 ft 398 kts 353°
2026-05-07 03:42 35.71367 -106.90554 27216 ft 400 kts 353°
2026-05-07 03:42 35.74102 -106.90976 27698 ft 401 kts 353°
2026-05-07 03:42 35.76893 -106.91405 28108 ft 404 kts 353°
2026-05-07 03:43 35.79700 -106.91839 28562 ft 406 kts 353°
2026-05-07 03:43 35.82467 -106.92270 29086 ft 405 kts 353°
2026-05-07 03:43 35.85263 -106.92703 29666 ft 403 kts 353°
2026-05-07 03:43 35.88049 -106.93134 30237 ft 400 kts 354°
2026-05-07 03:44 35.90806 -106.93470 30706 ft 400 kts 356°
2026-05-07 03:44 35.93562 -106.93626 31175 ft 399 kts 359°
2026-05-07 03:44 35.96344 -106.93598 31639 ft 398 kts
2026-05-07 03:44 35.99112 -106.93385 32072 ft 397 kts
2026-05-07 03:45 36.01862 -106.92988 32496 ft 397 kts
2026-05-07 03:45 36.04557 -106.92464 32887 ft 397 kts
2026-05-07 03:45 36.07286 -106.91906 33279 ft 396 kts
2026-05-07 03:45 36.10007 -106.91344 33672 ft 395 kts
2026-05-07 03:46 36.12690 -106.90791 34027 ft 396 kts
2026-05-07 03:46 36.15424 -106.90226 34271 ft 399 kts
2026-05-07 03:46 36.18192 -106.89653 34520 ft 402 kts
2026-05-07 03:46 36.20922 -106.89088 34789 ft 403 kts
2026-05-07 03:47 36.23724 -106.88509 35032 ft 406 kts
2026-05-07 03:47 36.26509 -106.87933 35179 ft 409 kts
2026-05-07 03:47 36.29335 -106.87349 35193 ft 409 kts
2026-05-07 03:48 36.34916 -106.86195 35193 ft 408 kts
2026-05-07 03:48 36.40529 -106.85030 35196 ft 407 kts
2026-05-07 03:49 36.46101 -106.83871 35189 ft 406 kts
2026-05-07 03:49 36.51648 -106.82716 35191 ft 405 kts
2026-05-07 03:50 36.57236 -106.81552 35191 ft 406 kts
2026-05-07 03:50 36.62781 -106.80393 35191 ft 404 kts
2026-05-07 03:51 36.68306 -106.79237 35193 ft 404 kts
2026-05-07 03:51 36.73862 -106.78074 35194 ft 402 kts
2026-05-07 03:52 36.79343 -106.76762 35204 ft 403 kts 10°
2026-05-07 03:52 36.84816 -106.75240 35208 ft 403 kts 10°
2026-05-07 03:53 36.90288 -106.73706 35214 ft 402 kts 10°
2026-05-07 03:53 36.95767 -106.72169 35215 ft 401 kts 11°
2026-05-07 03:54 37.01188 -106.70649 35224 ft 401 kts 10°
2026-05-07 03:54 37.06619 -106.69123 35231 ft 400 kts 10°
2026-05-07 03:55 37.12055 -106.67593 35240 ft 400 kts 11°
2026-05-07 03:55 37.17490 -106.66063 35242 ft 400 kts 10°
2026-05-07 03:56 37.22919 -106.64531 35245 ft 399 kts 10°
2026-05-07 03:56 37.28310 -106.63007 35237 ft 398 kts 10°
2026-05-07 03:57 37.33749 -106.61470 35255 ft 398 kts 10°
2026-05-07 03:57 37.39134 -106.59943 35252 ft 398 kts 10°
2026-05-07 03:58 37.44508 -106.58418 35256 ft 397 kts 10°
2026-05-07 03:58 37.49916 -106.56881 35260 ft 397 kts 10°
2026-05-07 03:59 37.55279 -106.55353 35245 ft 397 kts 10°
2026-05-07 03:59 37.60686 -106.53811 35238 ft 397 kts 10°
2026-05-07 04:00 37.66027 -106.52286 35255 ft 396 kts 10°
2026-05-07 04:00 37.71421 -106.50745 35250 ft 395 kts 10°
2026-05-07 04:01 37.76761 -106.49221 35257 ft 395 kts 10°
2026-05-07 04:01 37.82123 -106.47685 35252 ft 394 kts 10°
2026-05-07 04:02 37.87451 -106.46156 35264 ft 394 kts 10°
2026-05-07 04:02 37.92798 -106.44621 35268 ft 393 kts 10°
2026-05-07 04:03 37.98109 -106.43092 35241 ft 393 kts 10°
2026-05-07 04:03 38.03454 -106.41550 35238 ft 393 kts 10°
2026-05-07 04:04 38.08772 -106.40016 35246 ft 392 kts 10°
2026-05-07 04:04 38.14076 -106.38482 35234 ft 392 kts 10°
2026-05-07 04:05 38.19392 -106.36945 35237 ft 392 kts 10°
2026-05-07 04:05 38.24729 -106.35404 35235 ft 392 kts 10°
2026-05-07 04:06 38.30043 -106.33865 35230 ft 392 kts 11°
2026-05-07 04:06 38.35379 -106.32319 35249 ft 392 kts 10°
2026-05-07 04:07 38.40670 -106.30781 35255 ft 391 kts 11°
2026-05-07 04:07 38.45993 -106.29230 35252 ft 391 kts 11°
2026-05-07 04:08 38.51325 -106.27675 35249 ft 391 kts 10°
2026-05-07 04:08 38.56659 -106.26117 35253 ft 391 kts 11°
2026-05-07 04:09 38.61780 -106.23908 35251 ft 395 kts 21°
2026-05-07 04:09 38.66582 -106.20268 34730 ft 409 kts 32°
2026-05-07 04:09 38.68776 -106.17921 33866 ft 418 kts 38°
2026-05-07 04:10 38.70725 -106.15302 33100 ft 423 kts 44°
2026-05-07 04:10 38.72619 -106.12462 32366 ft 423 kts 45°
2026-05-07 04:10 38.74509 -106.09561 31641 ft 422 kts 45°
2026-05-07 04:10 38.76388 -106.06665 30904 ft 422 kts 45°
2026-05-07 04:11 38.78233 -106.03822 30185 ft 421 kts 45°
2026-05-07 04:11 38.80109 -106.00935 29489 ft 419 kts 45°
2026-05-07 04:11 38.81967 -105.98073 28922 ft 414 kts 45°
2026-05-07 04:11 38.83813 -105.95232 28353 ft 409 kts 45°
2026-05-07 04:12 38.85593 -105.92486 27901 ft 402 kts 45°
2026-05-07 04:12 38.87367 -105.89754 27467 ft 395 kts 45°
2026-05-07 04:12 38.89098 -105.87082 27057 ft 388 kts 45°
2026-05-07 04:12 38.90826 -105.84396 27062 ft 390 kts 45°
2026-05-07 04:13 38.92562 -105.81695 27088 ft 392 kts 45°
2026-05-07 04:13 38.94275 -105.79024 27108 ft 392 kts 45°
2026-05-07 04:13 38.96022 -105.76297 26908 ft 394 kts 45°
2026-05-07 04:13 38.97758 -105.73583 26364 ft 391 kts 45°
2026-05-07 04:14 38.99457 -105.70925 25860 ft 388 kts 46°
2026-05-07 04:14 39.01166 -105.68253 25361 ft 384 kts 46°
2026-05-07 04:14 39.02855 -105.65618 25077 ft 377 kts 45°
2026-05-07 04:14 39.04514 -105.63045 25002 ft 380 kts 45°
2026-05-07 04:15 39.06201 -105.60429 24482 ft 379 kts 45°
2026-05-07 04:15 39.07886 -105.57811 23970 ft 376 kts 45°
2026-05-07 04:15 39.09537 -105.55238 23483 ft 372 kts 45°
2026-05-07 04:15 39.11178 -105.52679 23004 ft 369 kts 45°
2026-05-07 04:16 39.12804 -105.50141 22530 ft 366 kts 45°
2026-05-07 04:16 39.14405 -105.47639 22251 ft 357 kts 45°
2026-05-07 04:16 39.15955 -105.45198 22191 ft 345 kts 45°
2026-05-07 04:16 39.17455 -105.42819 22038 ft 341 kts 45°
2026-05-07 04:17 39.18930 -105.40479 21540 ft 342 kts 45°
2026-05-07 04:17 39.20427 -105.38103 21066 ft 341 kts 45°
2026-05-07 04:17 39.21909 -105.35744 20603 ft 340 kts 45°
2026-05-07 04:17 39.23405 -105.33361 20142 ft 338 kts 46°
2026-05-07 04:18 39.24881 -105.31009 19689 ft 336 kts 46°
2026-05-07 04:18 39.26319 -105.28715 19445 ft 327 kts 46°
2026-05-07 04:18 39.27763 -105.26502 19263 ft 314 kts 41°
2026-05-07 04:18 39.29306 -105.24596 19181 ft 300 kts 35°
2026-05-07 04:19 39.30950 -105.22961 19208 ft 303 kts 31°
2026-05-07 04:19 39.32669 -105.21362 19214 ft 304 kts 31°
2026-05-07 04:19 39.34401 -105.19759 19218 ft 304 kts 31°
2026-05-07 04:19 39.36102 -105.18183 19209 ft 304 kts 31°
2026-05-07 04:20 39.37828 -105.16582 19110 ft 306 kts 31°
2026-05-07 04:20 39.39561 -105.14972 18662 ft 306 kts 31°
2026-05-07 04:20 39.41274 -105.13374 18229 ft 305 kts 31°
2026-05-07 04:21 39.44684 -105.10190 17426 ft 301 kts 32°
2026-05-07 04:21 39.46314 -105.08488 17036 ft 301 kts 36°
2026-05-07 04:21 39.47821 -105.06625 16943 ft 297 kts 40°
2026-05-07 04:21 39.49267 -105.04684 16971 ft 300 kts 40°
2026-05-07 04:22 39.50693 -105.02750 17004 ft 301 kts 41°
2026-05-07 04:22 39.52138 -105.00784 17008 ft 301 kts 41°
2026-05-07 04:22 39.53599 -104.98795 17002 ft 301 kts 41°
2026-05-07 04:22 39.55025 -104.96851 16995 ft 301 kts 41°
2026-05-07 04:23 39.56467 -104.94885 16991 ft 300 kts 41°
2026-05-07 04:23 39.57906 -104.92921 16988 ft 299 kts 40°
2026-05-07 04:23 39.59347 -104.90953 16980 ft 300 kts 40°
2026-05-07 04:23 39.60766 -104.89017 16967 ft 299 kts 40°
2026-05-07 04:24 39.62204 -104.87051 16751 ft 301 kts 40°
2026-05-07 04:24 39.63649 -104.85078 16308 ft 301 kts 40°
2026-05-07 04:24 39.65069 -104.83133 15912 ft 300 kts 40°
2026-05-07 04:24 39.66499 -104.81174 15536 ft 297 kts 40°
2026-05-07 04:25 39.67907 -104.79242 15272 ft 290 kts 40°
2026-05-07 04:25 39.69281 -104.77355 15045 ft 282 kts 40°
2026-05-07 04:25 39.70614 -104.75569 14987 ft 277 kts 39°
2026-05-07 04:25 39.71986 -104.73791 14978 ft 279 kts 38°
2026-05-07 04:26 39.73363 -104.72009 14971 ft 279 kts 38°
2026-05-07 04:26 39.74718 -104.70252 14957 ft 278 kts 38°
2026-05-07 04:26 39.76104 -104.68448 14635 ft 280 kts 39°
2026-05-07 04:26 39.77464 -104.66627 14253 ft 281 kts 42°
2026-05-07 04:27 39.78687 -104.64667 13894 ft 282 kts 47°
2026-05-07 04:27 39.79790 -104.62550 13537 ft 282 kts 50°
2026-05-07 04:27 39.80839 -104.60439 13186 ft 280 kts 50°
2026-05-07 04:27 39.81900 -104.58295 12835 ft 278 kts 50°
2026-05-07 04:28 39.82933 -104.56208 12492 ft 276 kts 50°
2026-05-07 04:28 39.83993 -104.54130 12137 ft 273 kts 45°
2026-05-07 04:28 39.85404 -104.52654 11774 ft 258 kts 17°
2026-05-07 04:28 39.87129 -104.52208 11436 ft 249 kts 357°
2026-05-07 04:29 39.88856 -104.52211 11185 ft 243 kts 356°
2026-05-07 04:29 39.90515 -104.52200 11112 ft 231 kts 357°
2026-05-07 04:29 39.92075 -104.52185 11031 ft 220 kts 356°
2026-05-07 04:29 39.93572 -104.52171 10963 ft 208 kts 356°
2026-05-07 04:30 39.94986 -104.52165 10826 ft 199 kts 356°
2026-05-07 04:30 39.96346 -104.52162 10582 ft 196 kts 356°
2026-05-07 04:30 39.97716 -104.52157 10293 ft 195 kts 356°
2026-05-07 04:30 39.99081 -104.52151 9985 ft 195 kts 356°
2026-05-07 04:31 40.00407 -104.52156 9734 ft 190 kts 351°
2026-05-07 04:31 40.01609 -104.52742 9448 ft 185 kts 316°
2026-05-07 04:31 40.02225 -104.54197 9200 ft 191 kts 281°
2026-05-07 04:31 40.02258 -104.55949 8986 ft 195 kts 270°
2026-05-07 04:32 40.02159 -104.57701 8737 ft 195 kts 268°
2026-05-07 04:32 40.02046 -104.59478 8483 ft 195 kts 268°
2026-05-07 04:32 40.01944 -104.61236 8230 ft 196 kts 268°
2026-05-07 04:32 40.01685 -104.62974 7987 ft 196 kts 245°
2026-05-07 04:33 40.00976 -104.64511 7982 ft 199 kts 235°
2026-05-07 04:33 39.99894 -104.65634 7952 ft 204 kts 200°
2026-05-07 04:33 39.98530 -104.65955 7882 ft 193 kts 185°
2026-05-07 04:33 39.97217 -104.65955 7597 ft 183 kts 180°
2026-05-07 04:34 39.95974 -104.65916 7343 ft 172 kts 180°
2026-05-07 04:34 39.94821 -104.65908 7085 ft 162 kts 181°
2026-05-07 04:34 39.93735 -104.65919 6853 ft 149 kts 181°
2026-05-07 04:34 39.92736 -104.65926 6631 ft 139 kts 179°
2026-05-07 04:35 39.91780 -104.65918 6476 ft 138 kts 180°
2026-05-07 04:35 39.90813 -104.65919 6316 ft 138 kts 180°
2026-05-07 04:35 39.89855 -104.65932 6117 ft 138 kts 182°
2026-05-07 04:35 39.88893 -104.65974 5921 ft 137 kts 181°
2026-05-07 04:36 39.87936 -104.65985 5744 ft 137 kts 180°
2026-05-07 04:36 39.86993 -104.66007 5576 ft 136 kts 180°
2026-05-07 04:36 39.86040 -104.66017 5401 ft 135 kts 180°
2026-05-07 04:36 39.85189 -104.66027 5393 ft 99 kts 180°
2026-05-07 04:37 39.84677 -104.66034 5397 ft 46 kts 180°
2026-05-07 04:37 39.84434 -104.66038 5401 ft 30 kts 181°
2026-05-07 04:37 39.84259 -104.66054 5406 ft 21 kts 192°
2026-05-07 04:37 39.84130 -104.66109 5410 ft 18 kts 203°
2026-05-07 04:38 39.84038 -104.66180 5413 ft 13 kts 227°
2026-05-07 04:38 39.84078 -104.66255 5412 ft 13 kts 355°
2026-05-07 04:38 39.84184 -104.66252 5409 ft 16 kts
2026-05-07 04:38 39.84307 -104.66250 5405 ft 19 kts
2026-05-07 04:39 39.84449 -104.66248 5400 ft 21 kts
2026-05-07 04:39 39.84601 -104.66246 5398 ft 21 kts
2026-05-07 04:39 39.84754 -104.66244 5397 ft 21 kts 359°
2026-05-07 04:39 39.84906 -104.66241 5395 ft 21 kts
2026-05-07 04:40 39.85059 -104.66242 5394 ft 21 kts 359°
2026-05-07 04:40 39.85210 -104.66241 5393 ft 21 kts
2026-05-07 04:40 39.85363 -104.66238 5392 ft 21 kts
2026-05-07 04:40 39.85504 -104.66237 5390 ft 18 kts
2026-05-07 04:41 39.85584 -104.66298 5388 ft 14 kts 275°
2026-05-07 04:41 39.85585 -104.66450 5383 ft 18 kts 270°
2026-05-07 04:41 39.85585 -104.66552 5379 ft 8 kts 269°
2026-05-07 04:41 39.85547 -104.66586 5379 ft 8 kts 178°
2026-05-07 04:42 39.85522 -104.66639 5379 ft 8 kts 271°
2026-05-07 04:42 39.85523 -104.66718 5379 ft 9 kts 271°
2026-05-07 04:42 39.85524 -104.66790 5379 ft 4 kts 257°
2026-05-07 04:42 39.85498 -104.66808 5379 ft 3 kts 182°
2026-05-07 04:43 39.85481 -104.66808 5379 ft 0 kts 179°
2026-05-07 04:43 39.85475 -104.66808 5379 ft 1 kts 180°
2026-05-07 04:43 39.85466 -104.66808 5379 ft 0 kts 180°